�N����,����,�~����,�C��,���x,�C��,����,���ϕ���,�ő�u�ԕ���,�ő厞����,���˗�,�I�_���x,�n�����x,�ő啗���N��,DTYPE
"21/05/23","00:10",0.0,13.8,94.9,1003.6,307.8,1.2,1.7,320.8,0.00,13.0,130.0,"00:01:36",1
"21/05/23","00:20",0.0,13.5,94.9,1003.8,281.6,0.8,1.1,309.7,0.00,12.7,130.0,"00:10:08",1
"21/05/23","00:30",0.0,13.4,95.2,1003.8,297.7,1.1,1.7,311.7,0.00,12.7,130.0,"00:28:32",1
"21/05/23","00:40",0.0,13.4,95.2,1004.1,314.5,1.2,1.7,320.9,0.00,12.7,130.0,"00:30:08",1
"21/05/23","00:50",0.0,13.3,95.3,1004.3,311.9,1.3,1.7,320.1,0.00,12.6,130.0,"00:42:00",1
"21/05/23","01:00",0.0,13.2,95.4,1003.8,307.0,1.1,1.7,315.8,0.00,12.5,130.0,"00:59:44",1
"21/05/23","01:10",0.0,13.2,95.6,1004.1,312.8,1.5,2.0,324.8,0.00,12.6,130.0,"01:03:04",1
"21/05/23","01:20",0.0,13.2,95.6,1003.6,294.8,1.2,1.8,319.5,0.00,12.6,130.0,"01:16:00",1
"21/05/23","01:30",0.0,13.1,95.7,1003.6,294.0,1.2,1.7,308.0,0.00,12.5,130.0,"01:25:28",1
"21/05/23","01:40",0.0,13.1,95.7,1003.6,310.3,0.8,2.0,324.7,0.00,12.5,130.0,"01:32:40",1
"21/05/23","01:50",0.0,12.9,95.9,1003.4,305.8,1.2,1.6,307.7,0.00,12.3,130.0,"01:46:40",1
"21/05/23","02:00",0.0,12.8,96.1,1003.4,316.7,1.3,1.7,323.8,0.00,12.2,130.0,"01:54:40",1
"21/05/23","02:10",0.0,12.7,96.0,1003.8,302.3,1.2,1.8,325.1,0.00,12.1,130.0,"02:01:12",1
"21/05/23","02:20",0.0,12.8,96.2,1003.8,314.8,1.5,2.1,321.0,0.00,12.3,130.0,"02:16:40",1
"21/05/23","02:30",0.0,12.7,96.3,1004.1,309.3,1.6,2.4,326.6,0.00,12.2,130.0,"02:26:00",1
"21/05/23","02:40",0.0,12.6,96.3,1004.3,305.7,1.7,2.7,323.5,0.00,12.1,130.0,"02:32:00",1
"21/05/23","02:50",0.0,12.8,96.4,1003.8,293.8,1.3,1.8,294.8,0.00,12.3,130.0,"02:40:40",1
"21/05/23","03:00",0.0,12.8,96.5,1004.1,302.8,1.3,2.4,319.9,0.00,12.3,130.0,"02:55:20",1
"21/05/23","03:10",0.0,12.9,96.5,1004.1,311.1,1.7,2.4,317.3,0.00,12.4,130.0,"03:01:04",1
"21/05/23","03:20",0.0,12.9,96.6,1004.3,285.8,1.2,1.8,318.5,0.00,12.4,130.0,"03:18:24",1
"21/05/23","03:30",0.0,13.1,96.6,1004.5,287.5,1.3,1.8,295.4,0.00,12.6,130.0,"03:21:28",1
"21/05/23","03:40",0.0,13.3,96.7,1004.3,312.9,1.6,2.2,323.2,0.00,12.8,130.0,"03:35:52",1
"21/05/23","03:50",0.2,13.3,96.7,1004.8,318.4,1.8,2.9,334.8,0.00,12.8,130.0,"03:49:52",1
"21/05/23","04:00",0.0,13.6,96.8,1004.8,324.3,2.1,3.3,323.1,0.00,13.1,130.0,"03:53:36",1
"21/05/23","04:10",0.0,13.7,96.8,1005.0,325.1,2.3,3.2,325.9,0.00,13.2,130.0,"04:00:56",1
"21/05/23","04:20",0.0,13.5,96.8,1005.2,304.9,1.6,2.8,318.5,0.00,13.0,130.0,"04:10:40",1
"21/05/23","04:30",0.0,13.7,97.0,1005.0,312.3,1.8,3.5,339.2,0.00,13.3,130.0,"04:27:12",1
"21/05/23","04:40",0.0,13.8,97.0,1005.2,324.1,2.0,2.8,308.4,0.00,13.4,130.0,"04:36:08",1
"21/05/23","04:50",0.0,13.9,97.0,1005.2,326.4,2.5,3.6,326.7,0.00,13.5,130.0,"04:42:48",1
"21/05/23","05:00",0.0,13.9,97.2,1005.2,331.6,2.3,4.5,336.6,0.00,13.5,130.0,"04:59:12",1
"21/05/23","05:10",0.0,13.9,97.2,1005.7,332.2,1.7,2.8,307.3,0.00,13.5,130.0,"05:01:04",1
"21/05/23","05:20",0.0,14.1,97.1,1006.0,338.4,1.7,3.5,339.6,0.00,13.7,130.0,"05:12:08",1
"21/05/23","05:30",0.0,14.0,97.2,1006.0,344.1,1.3,2.2,342.7,0.00,13.6,130.0,"05:27:04",1
"21/05/23","05:40",0.0,14.1,97.3,1006.2,348.0,1.3,2.1,326.5,0.00,13.7,130.0,"05:37:36",1
"21/05/23","05:50",0.0,14.2,97.4,1006.2,344.7,1.5,2.8,335.9,0.00,13.8,130.0,"05:43:04",1
"21/05/23","06:00",0.0,14.3,97.4,1006.4,348.9,1.5,2.7,342.2,0.01,13.9,130.0,"05:52:48",1
"21/05/23","06:10",0.0,14.6,97.4,1006.2,344.3,1.7,3.1,326.8,0.01,14.2,130.0,"06:08:16",1
"21/05/23","06:20",0.0,14.9,97.4,1006.2,337.2,3.1,6.3,343.5,0.02,14.5,130.0,"06:17:36",1
"21/05/23","06:30",0.0,15.2,97.4,1006.4,331.7,3.0,4.7,342.7,0.03,14.8,130.0,"06:23:36",1
"21/05/23","06:40",0.0,15.6,97.3,1006.4,341.3,2.2,4.3,343.5,0.05,15.2,130.0,"06:33:52",1
"21/05/23","06:50",0.0,16.0,97.2,1006.7,353.9,1.6,3.4,341.7,0.08,15.6,130.0,"06:40:08",1
"21/05/23","07:00",0.0,16.6,97.0,1006.4,355.4,1.1,2.0,7.9,0.11,16.2,130.0,"06:50:16",1
"21/05/23","07:10",0.0,17.1,96.5,1006.7,38.6,0.5,1.1,69.1,0.13,16.6,130.0,"07:06:48",1
"21/05/23","07:20",0.0,17.6,96.6,1006.2,341.0,0.7,1.8,351.7,0.16,17.1,130.0,"07:13:36",1
"21/05/23","07:30",0.0,17.5,95.8,1006.4,25.9,0.8,2.5,349.1,0.17,16.9,130.0,"07:22:32",1
"21/05/23","07:40",0.0,17.5,95.1,1006.4,127.9,0.6,1.7,144.6,0.18,16.7,130.0,"07:34:16",1
"21/05/23","07:50",0.0,17.8,95.1,1006.2,160.9,0.7,1.7,123.5,0.25,17.0,130.0,"07:41:44",1
"21/05/23","08:00",0.0,18.2,94.4,1006.7,316.4,0.6,2.4,347.6,0.23,17.3,130.0,"07:58:08",1
"21/05/23","08:10",0.0,18.1,93.3,1006.7,277.3,0.7,2.0,223.4,0.19,17.0,130.0,"08:06:24",1
"21/05/23","08:20",0.0,18.5,92.2,1006.7,224.8,0.7,2.0,145.9,0.24,17.3,130.0,"08:19:28",1
"21/05/23","08:30",0.0,19.3,91.3,1006.4,67.5,0.8,2.0,171.4,0.37,17.9,130.0,"08:20:16",1
"21/05/23","08:40",0.0,20.2,88.3,1006.7,214.3,0.6,2.1,350.2,0.36,18.2,130.0,"08:39:28",1
"21/05/23","08:50",0.0,20.8,84.3,1006.4,340.1,0.8,2.6,359.4,0.31,18.1,130.0,"08:43:20",1
"21/05/23","09:00",0.0,21.2,78.7,1006.4,280.8,1.0,2.1,338.7,0.33,17.4,130.0,"08:57:36",1
"21/05/23","09:10",0.0,21.3,74.1,1006.2,278.3,1.1,2.7,308.5,0.24,16.5,130.0,"09:03:12",1
"21/05/23","09:20",0.0,21.0,72.1,1006.4,313.1,1.6,3.5,347.9,0.24,15.8,130.0,"09:13:44",1
"21/05/23","09:30",0.0,21.2,70.3,1006.0,322.0,1.8,4.3,330.0,0.29,15.6,130.0,"09:22:56",1
"21/05/23","09:40",0.0,21.5,70.0,1005.7,299.6,1.5,4.3,345.3,0.28,15.8,130.0,"09:30:56",1
"21/05/23","09:50",0.0,21.3,69.7,1005.7,308.0,1.6,3.5,328.7,0.27,15.6,130.0,"09:46:40",1
"21/05/23","10:00",0.0,21.6,69.4,1005.2,289.2,2.0,4.9,231.6,0.40,15.8,130.0,"09:57:28",1
"21/05/23","10:10",0.0,22.0,68.9,1005.5,275.4,1.7,5.0,232.9,0.45,16.1,130.0,"10:06:32",1
"21/05/23","10:20",0.0,22.7,67.8,1005.0,291.5,1.6,3.9,356.5,0.52,16.5,130.0,"10:15:12",1
"21/05/23","10:30",0.0,23.1,66.6,1005.2,296.1,2.0,5.1,339.5,0.58,16.6,130.0,"10:24:16",1
"21/05/23","10:40",0.0,23.5,65.2,1004.8,316.9,2.0,4.1,346.4,0.55,16.6,130.0,"10:36:48",1
"21/05/23","10:50",0.0,23.0,65.2,1004.5,309.5,2.6,7.2,308.3,0.47,16.2,130.0,"10:41:12",1
"21/05/23","11:00",0.0,23.6,64.5,1004.3,295.0,2.0,4.4,334.7,0.59,16.6,130.0,"10:57:44",1
"21/05/23","11:10",0.0,24.0,63.8,1004.3,308.3,1.7,3.4,338.9,0.52,16.8,130.0,"11:09:28",1
"21/05/23","11:20",0.0,24.0,62.0,1004.1,295.9,1.8,4.4,342.1,0.60,16.3,130.0,"11:16:24",1
"21/05/23","11:30",0.0,24.5,61.4,1003.8,269.9,1.8,5.1,223.7,0.61,16.6,130.0,"11:29:44",1
"21/05/23","11:40",0.0,24.9,60.3,1003.8,243.8,2.0,4.9,227.0,0.60,16.7,130.0,"11:30:08",1
"21/05/23","11:50",0.0,25.5,58.2,1003.6,261.7,1.2,3.5,322.2,0.62,16.7,130.0,"11:40:32",1
"21/05/23","12:00",0.0,26.6,58.2,1002.9,155.0,1.1,2.4,59.2,0.63,17.8,130.0,"11:54:56",1
"21/05/23","12:10",0.0,26.4,54.6,1003.6,268.9,1.5,3.7,342.8,0.61,16.6,130.0,"12:05:24",1
"21/05/23","12:20",0.0,26.8,54.1,1003.1,345.5,1.2,3.3,1.0,0.62,16.8,130.0,"12:14:40",1
"21/05/23","12:30",0.0,26.8,53.0,1003.1,249.8,1.5,4.2,211.0,0.61,16.5,130.0,"12:27:04",1
"21/05/23","12:40",0.0,26.6,54.5,1002.9,229.7,1.3,4.2,224.5,0.54,16.7,130.0,"12:38:56",1
"21/05/23","12:50",0.0,26.2,54.7,1002.4,219.1,2.2,5.2,219.4,0.37,16.4,130.0,"12:43:36",1
"21/05/23","13:00",0.0,26.3,56.4,1002.4,231.0,1.5,4.7,229.4,0.38,17.0,130.0,"12:52:16",1
"21/05/23","13:10",0.0,26.0,54.5,1002.4,232.5,1.6,4.9,224.5,0.28,16.2,130.0,"13:01:04",1
"21/05/23","13:20",0.0,26.1,53.7,1002.2,259.6,2.0,4.7,254.7,0.32,16.0,130.0,"13:17:52",1
"21/05/23","13:30",0.0,27.4,53.3,1002.2,264.2,1.2,2.9,234.4,0.49,17.1,130.0,"13:22:48",1
"21/05/23","13:40",0.0,27.5,51.5,1002.4,254.2,1.8,3.4,272.8,0.46,16.7,130.0,"13:37:36",1
"21/05/23","13:50",0.0,27.6,48.2,1002.9,270.5,1.5,3.4,249.8,0.51,15.7,130.0,"13:49:36",1
"21/05/23","14:00",0.0,28.2,48.8,1002.9,268.5,1.6,4.9,237.3,0.57,16.5,130.0,"13:57:12",1
"21/05/23","14:10",0.0,28.6,46.8,1002.9,243.2,2.0,4.8,205.4,0.59,16.2,130.0,"14:03:04",1
"21/05/23","14:20",0.0,27.4,47.9,1002.4,249.5,2.1,4.4,228.1,0.30,15.4,130.0,"14:11:52",1
"21/05/23","14:30",0.0,27.5,48.4,1002.4,263.4,1.5,3.4,238.2,0.25,15.7,130.0,"14:22:24",1
"21/05/23","14:40",0.0,28.0,47.3,1002.2,325.6,1.7,3.4,336.0,0.41,15.8,130.0,"14:35:04",1
"21/05/23","14:50",0.0,28.5,44.7,1002.2,143.9,0.8,2.7,18.9,0.29,15.4,130.0,"14:40:40",1
"21/05/23","15:00",0.0,28.8,44.2,1002.2,354.3,1.3,3.5,354.7,0.39,15.5,130.0,"14:52:56",1
"21/05/23","15:10",0.0,28.7,44.9,1001.9,354.0,1.8,4.1,343.1,0.36,15.6,130.0,"15:09:28",1
"21/05/23","15:20",0.0,28.5,43.4,1002.2,338.7,1.7,3.6,347.5,0.35,14.9,130.0,"15:17:36",1
"21/05/23","15:30",0.0,28.2,44.1,1001.9,347.0,2.2,4.4,347.1,0.35,14.9,130.0,"15:23:04",1
"21/05/23","15:40",0.0,28.4,44.3,1001.9,346.0,2.3,4.8,312.9,0.38,15.1,130.0,"15:32:24",1
"21/05/23","15:50",0.0,29.0,42.6,1001.9,338.7,1.5,3.6,328.1,0.37,15.1,130.0,"15:46:32",1
"21/05/23","16:00",0.0,29.1,42.3,1002.2,357.7,1.3,4.2,356.2,0.32,15.0,130.0,"15:50:40",1
"21/05/23","16:10",0.0,28.7,41.0,1002.2,338.3,1.3,3.1,326.4,0.28,14.2,130.0,"16:03:44",1
"21/05/23","16:20",0.0,29.3,44.4,1002.6,322.6,0.6,1.9,334.3,0.27,16.0,130.0,"16:17:28",1
"21/05/23","16:30",0.0,28.3,49.9,1002.2,114.7,1.2,2.5,144.4,0.27,16.9,130.0,"16:28:00",1
"21/05/23","16:40",0.0,28.4,49.0,1002.2,7.9,0.5,1.6,31.2,0.24,16.7,130.0,"16:31:52",1
"21/05/23","16:50",0.0,27.5,51.2,1002.2,139.8,1.6,4.3,125.8,0.21,16.6,130.0,"16:43:20",1
"21/05/23","17:00",0.0,27.1,52.2,1001.9,166.8,1.6,3.5,150.8,0.19,16.5,130.0,"16:56:56",1
"21/05/23","17:10",0.0,27.3,51.8,1002.2,176.9,1.0,4.1,225.9,0.16,16.6,130.0,"17:09:52",1
"21/05/23","17:20",0.0,27.3,52.6,1002.4,194.8,1.0,3.2,205.2,0.06,16.8,130.0,"17:10:16",1
"21/05/23","17:30",0.0,26.9,53.2,1002.4,149.8,0.8,1.9,129.1,0.03,16.6,130.0,"17:25:04",1
"21/05/23","17:40",0.0,26.8,54.6,1002.4,195.8,1.0,2.2,217.0,0.03,16.9,130.0,"17:32:00",1
"21/05/23","17:50",0.0,26.9,53.4,1002.4,252.0,0.5,1.6,119.7,0.03,16.7,130.0,"17:40:24",1
"21/05/23","18:00",0.0,26.5,51.9,1002.2,237.6,1.0,2.6,284.8,0.02,15.9,130.0,"17:55:44",1
"21/05/23","18:10",0.0,26.2,50.1,1002.2,40.7,0.6,1.8,6.3,0.01,15.0,130.0,"18:01:44",1
"21/05/23","18:20",0.0,25.6,51.8,1003.4,28.7,0.7,1.8,118.1,0.00,15.0,130.0,"18:10:56",1
"21/05/23","18:30",0.0,24.9,57.6,1003.6,328.5,1.2,2.7,303.7,0.00,16.0,130.0,"18:26:00",1
"21/05/23","18:40",0.0,24.2,60.2,1003.8,316.8,0.8,1.7,329.7,0.00,16.0,130.0,"18:35:36",1
"21/05/23","18:50",0.0,23.4,62.0,1004.3,318.2,1.1,2.0,343.1,0.00,15.8,130.0,"18:42:40",1
"21/05/23","19:00",0.0,22.9,63.4,1004.8,293.4,1.1,2.2,335.7,0.00,15.6,130.0,"18:59:12",1
"21/05/23","19:10",0.0,22.4,64.3,1004.5,319.9,1.5,2.8,336.8,0.00,15.4,130.0,"19:08:16",1
"21/05/23","19:20",0.0,22.1,65.0,1005.0,294.0,1.2,2.2,339.8,0.00,15.3,130.0,"19:10:16",1
"21/05/23","19:30",0.0,21.8,66.1,1005.0,319.7,1.0,1.4,339.8,0.00,15.2,130.0,"19:21:44",1
"21/05/23","19:40",0.0,21.4,67.3,1005.2,299.7,0.6,1.0,301.6,0.00,15.1,130.0,"19:39:04",1
"21/05/23","19:50",0.0,21.0,67.7,1005.5,307.6,0.7,1.4,314.8,0.00,14.8,130.0,"19:49:12",1
"21/05/23","20:00",0.0,20.7,68.2,1005.7,312.3,0.8,2.7,339.4,0.00,14.7,130.0,"19:52:08",1
"21/05/23","20:10",0.0,20.6,68.6,1005.5,329.1,1.5,2.8,338.2,0.00,14.7,130.0,"20:08:24",1
"21/05/23","20:20",0.0,20.5,68.8,1006.2,312.1,1.5,2.8,343.1,0.00,14.6,130.0,"20:11:28",1
"21/05/23","20:30",0.0,20.3,69.6,1006.0,278.8,1.0,1.4,297.0,0.00,14.6,130.0,"20:28:08",1
"21/05/23","20:40",0.0,20.0,70.3,1006.2,314.5,1.3,2.2,329.9,0.00,14.5,130.0,"20:36:00",1
"21/05/23","20:50",0.0,19.8,71.0,1006.0,298.9,1.5,2.4,303.4,0.00,14.4,130.0,"20:40:24",1
"21/05/23","21:00",0.0,19.7,71.6,1006.4,258.3,1.0,1.8,241.7,0.00,14.5,130.0,"20:59:52",1
"21/05/23","21:10",0.0,19.6,71.9,1006.4,273.4,1.2,2.2,329.2,0.00,14.4,130.0,"21:09:52",1
"21/05/23","21:20",0.0,19.3,72.4,1006.4,294.0,1.5,2.4,309.8,0.00,14.3,130.0,"21:11:28",1
"21/05/23","21:30",0.0,19.2,72.6,1006.4,298.5,1.2,2.7,327.2,0.00,14.2,130.0,"21:21:28",1
"21/05/23","21:40",0.0,19.3,72.8,1006.7,323.7,1.3,2.5,316.6,0.00,14.3,130.0,"21:30:56",1
"21/05/23","21:50",0.0,19.4,73.8,1006.9,306.0,0.8,2.1,318.7,0.00,14.6,130.0,"21:49:36",1
"21/05/23","22:00",0.0,19.0,75.5,1006.9,301.0,1.1,1.7,325.6,0.00,14.6,130.0,"21:52:00",1
"21/05/23","22:10",0.0,18.6,76.5,1006.9,267.6,0.7,1.7,230.7,0.00,14.4,130.0,"22:08:00",1
"21/05/23","22:20",0.0,18.5,76.9,1006.9,326.3,1.3,2.5,334.0,0.00,14.4,130.0,"22:14:48",1
"21/05/23","22:30",0.0,18.8,77.3,1006.4,343.6,1.2,2.0,333.3,0.00,14.8,130.0,"22:26:24",1
"21/05/23","22:40",0.0,18.5,77.6,1006.4,267.9,1.0,1.6,297.1,0.00,14.6,130.0,"22:30:48",1
"21/05/23","22:50",0.0,18.5,77.3,1006.7,277.4,1.0,1.8,314.0,0.00,14.5,130.0,"22:42:56",1
"21/05/23","23:00",0.0,18.6,76.9,1006.7,329.2,1.3,2.2,328.6,0.00,14.5,130.0,"22:55:52",1
"21/05/23","23:10",0.0,18.2,77.1,1006.7,290.5,0.6,1.6,320.1,0.00,14.2,130.0,"23:00:56",1
"21/05/23","23:20",0.0,18.1,78.1,1006.7,325.7,1.1,1.7,332.1,0.00,14.3,130.0,"23:16:48",1
"21/05/23","23:30",0.0,17.9,79.1,1006.7,319.6,1.7,2.7,330.3,0.00,14.3,130.0,"23:28:56",1
"21/05/23","23:40",0.0,18.0,79.4,1006.4,308.0,1.2,2.1,322.6,0.00,14.4,130.0,"23:31:12",1
"21/05/23","23:50",0.0,17.9,79.6,1006.4,296.2,1.5,2.1,311.9,0.00,14.4,130.0,"23:46:24",1
"21/05/23","24:00",0.0,18.0,79.5,1006.0,266.9,1.0,1.8,274.7,0.00,14.4,130.0,"23:50:56",1
